THOR ABLESTAR DEB, 657

Orbit data source: Space-Track

THOR ABLESTAR DEB, 657 is space debris in LEO originally from a launch on Thu, 29 Jun 1961 UTC launched from the Air Force Eastern Test Range (AFETR). Debris objects in space refer to the collection of defunct objects orbiting the Earth. Examples of debris include non-operational satellites, rocket bodies, and fragments generated from explosions, collisions, or faulty payload assembly.

Loading next visibility...
Identifier
657, 1961-015HJ
Orbit
LEO
Country
Flag of USUS
Related business
Manufacturer
Unknown
Mission
Spacecraft
Bus & Motor
Unknown
Mass
Unknown
Launch date (UTC)
1961-06-29 (64 years ago)
Launch vehicle
Unknown
Launch site
Air Force Eastern Test Range (AFETR)
Object type
Payload
Rocket body
Debris
Shape & HBR
Unknown shape, 0.1 m
Radar Cross Section
Small (<0.1 m²)

Expand to show TLE details & history
Last TLE update: 20 hours ago

TLE from 20 hours ago
0 THOR ABLESTAR DEB
1 00657U 61015HJ  25347.56000187  .00000484  00000-0  11687-2 0  9990
2 00657  66.2535  44.5161 0331939 122.4154 356.3449 13.11846052 80277
Epoch: 2025-12-13T13:26Z
TLE epoch observation values (Epoch: 2025-12-13T13:26:24.161Z)
Latitude
53.66661°
Longitude
-96.0854°
Altitude
972.378 km
Speed
7.492 km/s
True Right ascension
12h 32m 00s
True Declination
53° 30' 26"
Sunlit
Object was in daylight at epoch
Visualization orbit readout
Latitude
Unknown
Longitude
Unknown
Altitude
Unknown
Speed
Unknown
Apparent Right ascension
Unknown
Apparent Declination
Unknown
Sunlit
N/A
Visualization observer readout
Local Sidereal Time
07:41:50
Azimuth
Unknown
Elevation
Unknown
Doppler factor
Unknown
Orbital elements
Apogee altitude
1,466.57 km
Perigee altitude
962.509 km
Semi-major axis
7,592.677 km
Eccentricity
0.03319
Inclination
66.2535°
RAAN
44.5161°
Arg. of periapsis
122.4154°
True anomaly
356.09196°
Mean anomaly
356.3449°
Eccentric anomaly
356.2195°
Mean motion
3.28058 °/min
Orbital period
109.74 mins
BSTAR
0.0011687
Loading maneuver chart data...
Computing Atmospheric mass density...

Documentation

Showing up to 5 results
|